Regional Weather Roundup
Issued by NWS State College, PA

Home | Current Version | Previous Version | Graphics & Text | Print | Product List | Glossary Off
Versions: 1 2 3 4 5 6 7 8 9 10 11 12 13 14 15 16 17 18 19 20 21 22 23 24 25 26 27 28 29 30 31 32 33 34 35 36 37 38 39 40 41 42 43 44 45 46 47 48 49 50

000
ASUS41 KCTP 191503
RWRCTP

REGIONAL WEATHER ROUNDUP
NATIONAL WEATHER SERVICE STATE COLLEGE PA
1100 AM EDT THU OCT 19 2017

Note: "fair" indicates few or no clouds below 12,000 feet with no
significant weather and/or obstructions to visibility.

* = STATION THAT DOES NOT REPORT PRECIPITATION /E.G. RAIN...SNOW...ETC/
    THUNDER OR FOG.

PAZ002>004-007>009-013>016-020>023-029>032-191600-
WESTERN PENNSYLVANIA

CITY           SKY/WX    TMP DP  RH WIND       PRES   REMARKS
ERIE           SUNNY     62  46  55 S15G25    30.11F
MEADVILLE      SUNNY     58  46  64 SW9G17    30.17S
FRANKLIN*      SUNNY     59  45  59 SW12      30.19S
NEW CASTLE     FAIR      60  47  61 VRB6      30.21S
BEAVER COUNTY  SUNNY     61  45  55 SW13      30.22S
BUTLER*        SUNNY     60  45  57 SW12      30.22F
PITTSBURGH INT MOSUNNY   61  44  53 SW8       30.23S
PITTSBURGH     SUNNY     59  43  55 S9        30.24S
INDIANA*       SUNNY     59  46  63 SW10      30.26F
LATROBE        SUNNY     61  45  55 SW14      30.26S
WASHINGTON CO* SUNNY     62  45  53 SW8G17    30.28R
$$

PAZ004>006-010>012-017>019-024>028-033>037-041-042-045-046-049>053-191600-
CENTRAL PENNSYLVANIA

CITY           SKY/WX    TMP DP  RH WIND       PRES   REMARKS
BRADFORD       SUNNY     57  43  59 W12G17    30.17S
DUBOIS         SUNNY     60  43  53 SW13G22   30.20F
CLEARFIELD     SUNNY     55  44  66 SW10      30.22F
JOHNSTOWN      SUNNY     59  42  53 W12G23    30.24S
ALTOONA        NOT AVBL
STATE COLLEGE  MOSUNNY   61  46  59 S7        30.21F
WILLIAMSPORT   PTSUNNY   48  47  96 CALM      30.21F FOG
SELINSGROVE    SUNNY     58  48  69 VRB5      30.24F
FT INDIANTOWN  MOSUNNY   57  48  70 S3        30.25F
CAPITAL CITY   SUNNY     60  44  55 NW5       30.25F
HARRISBURG     SUNNY     58  48  69 VRB3      30.25F
YORK           SUNNY     61  46  57 SW5       30.25F
$$

PAZ038>040-043-044-047-048-054-055-060>062-067>071-191600-
EASTERN PENNSYLVANIA

CITY           SKY/WX    TMP DP  RH WIND       PRES   REMARKS
SCRANTON       SUNNY     61  45  55 W8        30.22S
MOUNT POCONO   SUNNY     60  40  47 SW12      30.22F
ALLENTOWN      SUNNY     60  46  59 W3        30.24F
QUAKERTOWN*    SUNNY     63  43  48 SW6       30.26S
READING        SUNNY     62  49  62 S6        30.24F
LANCASTER      SUNNY     60  47  61 W6        30.25F
COATESVILLE    NOT AVBL
POTTSTOWN      SUNNY     60  47  61 S6        30.27F
BLUE BELL      SUNNY     63  43  48 W5        30.27F
DOYLESTOWN     SUNNY     63  42  46 SW7       30.25F
WILLOW GROVE   NOT AVBL
NORTH PHILA    SUNNY     66  45  46 SW9       30.27F
PHILADELPHIA   MOSUNNY   62  49  62 SW10      30.27F
$$




USA.gov is the U.S. government's official web portal to all federal, state and local government web resources and services.